Volver al catálogo

STARLINK-3797

ActivoComunicacionesVLEO
NORAD 52337·PAYLOAD·🇺🇸 United States

Lanzado Apr 29, 2022 desde Cape Canaveral Space Force Station

Loading…

Próximos Pases (próximas 24 horas)

TLE

ActualizadoSource: CelesTrak SupGP

Época: Sep 14, 2026, 20:26 UTC

1 52337C 22045G   26257.85187500  .00734170  00000+0  22972-1 0  2570
2 52337  53.1610  77.9153 0001290  84.8028  19.4297 15.32209016    14

Sigue STARLINK-3797 en tiempo real con AllMySat

Download on the App Store